When you browse on this site, cookies collect data to enhance your experience and personalize the content and advertising you see.
Visit our Privacy Policy to learn more. By continuing to use the site, you agree to this use of cookies and data.
  • In Austria
  • List of Countries
  • For 7 days
  • Water Temperature
  • Satellite Maps
  • Weather Map
  • News
  • Weather Widgets
  • user-avatar
    Login

    Hourly Weather Shrewsbury

    Today, 10 December, Monday

    Time Temperature Precipitation Wind Pressure Humidity
    00:00 +6°C° 0 mm 5 mps 761 mmHg 88%
    01:00 +5°C° 0 mm 4 mps 761 mmHg 89%
    02:00 +5°C° 0 mm 4 mps 762 mmHg 90%
    03:00 +5°C° 0 mm 4 mps 762 mmHg 90%
    04:00 +5°C° 0 mm 4 mps 762 mmHg 91%
    05:00 +5°C° 0 mm 4 mps 763 mmHg 91%
    06:00 +5°C° 0 mm 3 mps 763 mmHg 91%
    07:00 +5°C° 0 mm 3 mps 763 mmHg 91%
    08:00 +5°C° 0 mm 3 mps 764 mmHg 91%
    09:00 +5°C° 0 mm 3 mps 764 mmHg 91%
    10:00 +5°C° 0 mm 3 mps 764 mmHg 88%
    11:00 +7°C° 0 mm 3 mps 764 mmHg 84%
    12:00 +8°C° 0 mm 3 mps 764 mmHg 81%
    13:00 +8°C° 0 mm 3 mps 764 mmHg 82%
    14:00 +8°C° 0 mm 2 mps 764 mmHg 83%
    15:00 +8°C° 0 mm 2 mps 764 mmHg 84%
    16:00 +7°C° 0 mm 2 mps 764 mmHg 85%
    17:00 +8°C° 0 mm 1 mps 764 mmHg 86%
    18:00 +8°C° 0 mm 1 mps 764 mmHg 87%
    19:00 +8°C° 0 mm 1 mps 764 mmHg 87%
    20:00 +8°C° 0 mm 1 mps 764 mmHg 87%
    21:00 +8°C° 0 mm 1 mps 764 mmHg 87%
    22:00 +8°C° 0 mm 1 mps 764 mmHg 87%
    23:00 +8°C° 0 mm 1 mps 764 mmHg 88%

    Tomorrow, 11 December, Tuesday

    Time Temperature Precipitation Wind Pressure Humidity
    00:00 +7°C° 0 mm 2 mps 763 mmHg 88%
    01:00 +7°C° 0 mm 2 mps 763 mmHg 89%
    02:00 +7°C° 0 mm 2 mps 763 mmHg 90%
    03:00 +7°C° 0 mm 2 mps 762 mmHg 91%
    04:00 +7°C° 0 mm 2 mps 762 mmHg 92%
    05:00 +7°C° 0 mm 2 mps 761 mmHg 93%
    06:00 +7°C° 0 mm 2 mps 761 mmHg 94%
    07:00 +7°C° 0 mm 2 mps 761 mmHg 94%
    08:00 +7°C° 0 mm 3 mps 761 mmHg 94%
    09:00 +7°C° 0 mm 3 mps 761 mmHg 95%
    10:00 +8°C° 0 mm 3 mps 761 mmHg 93%
    11:00 +8°C° 0 mm 3 mps 760 mmHg 92%
    12:00 +8°C° 0 mm 4 mps 760 mmHg 91%
    13:00 +8°C° 0 mm 4 mps 759 mmHg 91%
    14:00 +8°C° 0 mm 4 mps 759 mmHg 91%
    15:00 +8°C° 0 mm 4 mps 758 mmHg 91%
    16:00 +8°C° 0 mm 4 mps 758 mmHg 92%
    17:00 +7°C° 0 mm 4 mps 758 mmHg 92%
    18:00 +7°C° 0 mm 5 mps 757 mmHg 92%
    19:00 +7°C° 0.1 mm 5 mps 757 mmHg 92%
    20:00 +7°C° 0.1 mm 5 mps 756 mmHg 92%
    21:00 +7°C° 0.1 mm 5 mps 756 mmHg 91%
    22:00 +7°C° 0.4 mm 5 mps 756 mmHg 91%
    23:00 +7°C° 0.4 mm 5 mps 755 mmHg 92%

    Day after tomorrow, 12 December, Wednesday

    Time Temperature Precipitation Wind Pressure Humidity
    00:00 +7°C° 0.4 mm 5 mps 755 mmHg 92%
    01:00 +7°C° 0.8 mm 5 mps 755 mmHg 92%
    02:00 +7°C° 0.8 mm 4 mps 755 mmHg 93%
    03:00 +7°C° 0.8 mm 4 mps 755 mmHg 93%
    04:00 +7°C° 0.3 mm 3 mps 755 mmHg 93%
    05:00 +7°C° 0.3 mm 3 mps 755 mmHg 93%
    06:00 +7°C° 0.3 mm 2 mps 755 mmHg 93%
    07:00 +7°C° 0.1 mm 2 mps 755 mmHg 93%
    08:00 +7°C° 0.1 mm 2 mps 756 mmHg 93%
    09:00 +7°C° 0.1 mm 2 mps 756 mmHg 93%
    10:00 +7°C° 0.2 mm 2 mps 756 mmHg 92%
    11:00 +7°C° 0.2 mm 2 mps 756 mmHg 91%
    12:00 +7°C° 0.2 mm 2 mps 755 mmHg 90%
    13:00 +7°C° 0.1 mm 3 mps 755 mmHg 90%
    14:00 +7°C° 0.1 mm 3 mps 755 mmHg 90%
    15:00 +6°C° 0.1 mm 4 mps 754 mmHg 89%
    16:00 +6°C° 0.2 mm 4 mps 754 mmHg 90%
    17:00 +6°C° 0.2 mm 4 mps 754 mmHg 91%
    18:00 +5°C° 0.2 mm 4 mps 753 mmHg 91%
    19:00 +5°C° 0.1 mm 4 mps 753 mmHg 91%
    20:00 +5°C° 0.1 mm 5 mps 753 mmHg 91%
    21:00 +5°C° 0.1 mm 5 mps 752 mmHg 91%
    22:00 +3°C° 0.2 mm 5 mps 752 mmHg 91%
    23:00 +3°C° 0.2 mm 5 mps 751 mmHg 90%

    13 December, Thursday

    Time Temperature Precipitation Wind Pressure Humidity
    00:00 +3°C° 0.2 mm 6 mps 750 mmHg 90%
    01:00 +3°C° 0.1 mm 6 mps 750 mmHg 90%
    02:00 +3°C° 0.1 mm 6 mps 749 mmHg 90%
    03:00 +3°C° 0.1 mm 6 mps 748 mmHg 90%
    04:00 +3°C° 0.2 mm 6 mps 747 mmHg 90%
    05:00 +3°C° 0.2 mm 6 mps 747 mmHg 90%
    06:00 +3°C° 0.2 mm 6 mps 746 mmHg 91%
    07:00 +3°C° 0.4 mm 6 mps 746 mmHg 90%
    08:00 +4°C° 0.4 mm 7 mps 746 mmHg 90%
    09:00 +4°C° 0.4 mm 7 mps 746 mmHg 90%
    10:00 +4°C° 0.4 mm 7 mps 746 mmHg 89%
    11:00 +4°C° 0.4 mm 7 mps 746 mmHg 87%
    12:00 +4°C° 0.4 mm 7 mps 746 mmHg 86%
    13:00 +4°C° 0.4 mm 6 mps 746 mmHg 86%
    14:00 +4°C° 0.4 mm 6 mps 747 mmHg 86%
    15:00 +5°C° 0.4 mm 5 mps 747 mmHg 86%
    16:00 +5°C° 0.3 mm 5 mps 748 mmHg 87%
    17:00 +3°C° 0.3 mm 5 mps 748 mmHg 87%
    18:00 +3°C° 0.3 mm 5 mps 749 mmHg 88%
    19:00 +4°C° 0.1 mm 4 mps 750 mmHg 88%
    20:00 +4°C° 0.1 mm 4 mps 750 mmHg 88%
    21:00 +4°C° 0.1 mm 3 mps 751 mmHg 88%
    22:00 +3°C° 0 mm 3 mps 751 mmHg 89%
    23:00 +3°C° 0 mm 3 mps 752 mmHg 90%

    14 December, Friday

    Time Temperature Precipitation Wind Pressure Humidity
    00:00 +3°C° 0 mm 3 mps 752 mmHg 90%
    01:00 +3°C° 0 mm 3 mps 752 mmHg 91%
    02:00 +2°C° 0 mm 3 mps 752 mmHg 92%
    03:00 +3°C° 0 mm 2 mps 752 mmHg 92%
    04:00 +2°C° 0 mm 3 mps 752 mmHg 92%
    05:00 +2°C° 0 mm 3 mps 751 mmHg 92%
    06:00 +1°C° 0 mm 4 mps 751 mmHg 91%
    07:00 +1°C° 0 mm 4 mps 751 mmHg 91%
    08:00 +1°C° 0 mm 4 mps 751 mmHg 90%
    09:00 +1°C° 0 mm 4 mps 751 mmHg 90%
    10:00 +2°C° 0 mm 5 mps 750 mmHg 89%
    11:00 +2°C° 0 mm 6 mps 749 mmHg 89%
    12:00 +2°C° 0 mm 6 mps 748 mmHg 88%
    13:00 +3°C° 0.1 mm 6 mps 748 mmHg 88%
    14:00 +3°C° 0.1 mm 6 mps 747 mmHg 88%
    15:00 +3°C° 0.1 mm 6 mps 747 mmHg 88%
    16:00 +3°C° 0.3 mm 6 mps 747 mmHg 89%
    17:00 +3°C° 0.3 mm 6 mps 747 mmHg 90%
    18:00 +3°C° 0.3 mm 6 mps 747 mmHg 91%
    19:00 +3°C° 0.1 mm 5 mps 748 mmHg 92%
    20:00 +3°C° 0.1 mm 5 mps 748 mmHg 92%
    21:00 +4°C° 0.1 mm 4 mps 749 mmHg 93%
    22:00 +4°C° 0 mm 4 mps 749 mmHg 93%
    23:00 +4°C° 0 mm 4 mps 749 mmHg 93%

    15 December, Saturday

    Time Temperature Precipitation Wind Pressure Humidity
    00:00 +4°C° 0 mm 4 mps 749 mmHg 94%
    01:00 +4°C° 0 mm 4 mps 750 mmHg 94%
    02:00 +4°C° 0 mm 4 mps 750 mmHg 94%
    03:00 +5°C° 0 mm 4 mps 750 mmHg 94%
    04:00 +5°C° 0.1 mm 4 mps 749 mmHg 94%
    05:00 +5°C° 0.1 mm 5 mps 749 mmHg 94%
    06:00 +5°C° 0.1 mm 5 mps 749 mmHg 94%
    07:00 +4°C° 0.2 mm 6 mps 748 mmHg 94%
    08:00 +4°C° 0.2 mm 6 mps 748 mmHg 94%
    09:00 +5°C° 0.2 mm 7 mps 747 mmHg 94%
    10:00 +6°C° 0.6 mm 7 mps 746 mmHg 93%
    11:00 +7°C° 0.6 mm 8 mps 745 mmHg 92%
    12:00 +8°C° 0.6 mm 9 mps 743 mmHg 92%
    13:00 +9°C° 1.8 mm 8 mps 743 mmHg 88%
    14:00 +9°C° 1.8 mm 8 mps 743 mmHg 84%
    15:00 +10°C° 1.8 mm 7 mps 742 mmHg 80%
    16:00 +9°C° 0.1 mm 7 mps 742 mmHg 79%
    17:00 +8°C° 0.1 mm 7 mps 743 mmHg 78%
    18:00 +6°C° 0.1 mm 8 mps 743 mmHg 78%
    19:00 +6°C° 0.1 mm 7 mps 744 mmHg 76%
    20:00 +6°C° 0.1 mm 7 mps 745 mmHg 74%
    21:00 +5°C° 0.1 mm 7 mps 746 mmHg 72%
    22:00 +5°C° 0 mm 7 mps 746 mmHg 73%
    23:00 +5°C° 0 mm 6 mps 747 mmHg 75%
    Show more